Regional Weather Roundup
Issued by NWS Bismarck, ND

Home | Current Version | Previous Version | Text Only | Print | Product List | Glossary On
Versions: 1 2 3 4 5 6 7 8 9 10 11 12 13 14 15 16 17 18 19 20 21 22 23 24 25 26 27 28 29 30 31 32 33 34 35 36 37 38 39 40 41 42 43 44 45 46 47 48 49 50
000
ASUS43 KBIS 051302
RWRBIS

NWR BROADCAST TEXT
NATIONAL WEATHER SERVICE BISMARCK ND
800 AM CDT THU MAY 05 2016

NOTE: "FAIR" INDICATES FEW OR NO CLOUDS BELOW 12,000 FEET WITH NO
SIGNIFICANT WEATHER AND/OR OBSTRUCTIONS TO VISIBILITY.


CITY           SKY/WX    TMP DP  RH WIND       PRES   REMARKS
WILLISTON      SUNNY     56  46  69 SW3       29.86R
MINOT          SUNNY     68  42  38 SW18      29.85R
MINOT AFB      NOT AVBL
BISMARCK       SUNNY     61  46  57 SW3       29.93R
DICKINSON      SUNNY     56  42  59 S9        29.90S
GARRISON         N/A     58  44  60 CALM      29.89S
HETTINGER ARPT SUNNY     53  43  68 S3        29.95F
JAMESTOWN      SUNNY     62  43  49 W9        29.90S
CARRINGTON     FAIR      61  45  55 SW12G17   29.91S
HAZEN          FAIR      59  43  55 SW9       29.92S
OAKES            N/A    N/A N/A N/A MISG        N/A
STANLEY        FAIR      57  45  62 S3        29.89S
$$

CITY           SKY/WX    TMP DP  RH WIND       PRES   REMARKS
GRAND FORKS    MOSUNNY   58  39  49 S10       29.84S
GRAND FORKS AF MOSUNNY   68  43  40 W18       29.83R
DEVILS LAKE    SUNNY     60  46  59 W10       29.88R
FARGO          SUNNY     57  34  41 S12       29.91R
CAVALIER       FAIR      72  45  37 W24G40    29.78S
GRAFTON        FAIR      66  48  52 W18       29.82S
GWINNER        FAIR      54  39  58 SW15      29.94S
LANGDON        FAIR      61  46  59 W18G25    29.84F
$$

CITY           SKY/WX    TMP DP  RH WIND       PRES   REMARKS
ABERDEEN       SUNNY     49  41  74 S9        29.98R
MOBRIDGE       SUNNY     54  46  74 SE10      29.94R
BUFFALO          N/A     50  42  74 CALM      29.88S
RAPID CITY     SUNNY     49  43  80 E3        29.96S
GLASGOW        SUNNY     55  42  61 SE12      29.81S
SIDNEY         SUNNY     54  45  71 S6        29.86S
WOLF POINT     SUNNY     51  44  77 CALM      29.84S
GLENDIVE       SUNNY     55  45  67 SW3       29.91R
MILES CITY     SUNNY     56  44  64 S13       29.87S
BAKER          SUNNY     50  43  77 E6        29.93S
$$

CITY           SKY/WX    TMP DP  RH WIND       PRES   REMARKS
BILLINGS       MOCLDY    57  35  43 SW16      29.92R
GREAT FALLS    CLOUDY    45  39  79 W7        29.89R
$$





USA.gov is the U.S. government's official web portal to all federal, state and local government web resources and services.